Theta_e
310 313 312 312 311 309 305 300 304 310 303 300 296 297 303 306 307 308 307 306 304 302 303 301 302 300 305 310 303 300 299 294 294 297 302 303 300 296 292 290 290 288 291 294
312 312 312 311 310 309 305 300 301 314 305 295 295 298 302 306 304 305 305 304 307 306 302 298 305 307 311 312 307 301 302 294 291 295 297 302 302 301 296 292 290 290 292 297
312 312 313 311 311 310 304 304 303 304 302 298 297 297 300 302 310 307 307 304 304 302 300 303 303 305 312 312 312 322 309 295 294 292 294 299 299 303 301 297 294 292 294 301
312 313 313 312 311 310 304 302 300 302 297 300 299 299 301 302 303 306 305 303 303 300 297 299 300 302 305 310 312 309 302 296 299 297 302 303 302 302 301 298 298 297 298 304
312 313 313 312 311 309 306 300 300 302 299 300 297 298 299 303 303 302 303 302 303 302 298 298 298 298 297 299 303 301 303 299 301 299 302 305 300 302 307 306 307 300 302 305
312 313 313 312 310 306 302 304 305 303 300 300 298 298 300 302 303 304 307 306 302 300 300 303 301 301 301 299 298 297 300 298 297 293 297 301 296 300 306 306 308 306 300 307
312 313 313 312 311 309 302 301 303 301 298 301 301 303 303 301 301 300 305 304 300 304 304 300 296 296 294 296 297 298 297 296 293 293 293 291 298 309 310 307 308 311 314 314
312 312 313 313 312 310 300 301 303 300 297 302 301 302 301 300 301 300 303 306 305 303 299 292 289 290 290 293 296 294 296 295 292 291 289 293 301 306 305 304 302 307 309 313
311 312 313 313 312 310 300 300 305 302 300 299 306 301 300 296 296 300 303 306 303 301 294 292 285 286 289 291 294 290 292 293 295 289 288 289 296 309 313 308 296 307 310 308
311 311 311 312 312 310 305 301 304 303 299 304 302 299 299 302 299 298 300 302 301 300 293 291 288 288 292 290 289 292 290 290 288 288 287 293 304 309 310 295 296 306 307 306
310 310 311 312 312 312 308 301 304 305 298 302 307 307 301 303 300 297 300 301 303 299 294 291 291 291 295 294 294 293 292 290 289 290 290 289 306 306 300 301 304 306 306 305
309 310 310 311 311 311 309 297 303 306 302 302 308 310 310 307 306 301 299 301 302 302 299 297 295 295 293 292 290 296 291 294 293 294 294 301 303 303 305 305 304 304 305 306
308 309 309 310 310 310 309 299 299 302 301 303 303 304 307 306 306 306 301 304 305 304 304 299 294 292 293 290 292 295 296 297 297 296 300 301 303 304 306 306 305 306 306 307
308 309 309 310 310 310 309 298 300 301 301 297 302 310 306 308 307 308 308 307 303 302 300 296 294 293 296 293 295 294 296 298 296 296 300 301 303 303 304 306 307 307 308 307
309 309 309 310 310 309 306 301 302 304 302 297 299 305 308 306 307 306 305 304 302 300 299 295 294 295 296 294 294 294 297 296 295 295 300 299 300 303 306 304 305 306 305 305
309 309 309 310 310 309 302 303 305 305 302 299 296 304 304 306 306 305 304 304 302 300 298 297 297 300 296 291 290 298 300 301 302 300 302 302 303 305 306 305 306 306 305 304
310 310 309 308 308 305 299 302 305 306 301 300 296 297 304 306 306 304 304 304 301 300 297 297 296 297 296 292 291 300 301 302 304 304 303 301 302 301 304 305 306 307 306 306
310 309 308 308 308 306 302 306 308 305 302 301 294 296 298 304 300 299 302 300 301 300 297 297 296 297 295 291 295 300 302 303 303 304 303 302 302 302 304 305 305 302 302 303
309 310 309 304 303 302 306 315 313 305 303 296 295 293 293 302 299 300 300 299 296 299 297 296 298 293 292 296 299 302 303 302 302 304 304 302 302 303 304 303 302 300 301 302
310 307 305 300 306 316 313 306 301 301 300 298 294 298 296 299 297 298 298 297 295 293 297 300 296 295 298 299 306 307 304 302 303 300 297 300 301 302 302 302 302 302 302 304
302 297 298 304 310 306 304 302 296 298 295 296 297 297 297 303 297 299 301 298 296 291 293 294 293 292 297 303 303 302 303 303 302 302 302 302 302 302 302 302 303 304 305 304
302 303 305 301 301 299 298 295 298 295 294 298 296 298 301 304 303 299 300 295 295 290 298 294 290 293 299 302 303 303 303 304 304 305 304 304 305 304 303 303 304 305 306 307
303 303 301 300 297 288 292 291 292 294 300 301 301 299 306 306 303 298 297 294 293 298 293 291 296 300 303 302 304 305 304 305 305 305 306 306 305 305 304 304 305 305 306 307
299 300 288 292 291 293 296 296 298 302 306 305 303 302 300 301 298 298 294 295 296 291 288 291 297 299 301 302 308 310 308 305 305 304 304 304 304 304 305 305 305 305 305 307
298 298 289 293 297 299 303 303 303 306 307 305 302 302 301 297 296 296 295 293 290 291 289 294 298 299 300 300 302 302 303 304 303 303 304 304 303 303 302 304 305 305 306 307
300 297 294 297 297 298 300 303 302 308 306 305 303 297 295 294 294 293 294 293 289 292 296 298 298 297 298 300 301 303 304 303 303 303 303 303 302 302 303 304 304 305 309 305
299 296 299 298 300 300 301 301 305 308 305 300 300 296 293 295 292 291 295 292 295 296 297 298 298 298 300 301 301 304 305 304 303 302 302 302 303 303 302 302 303 308 309 306
Wind_Speed
26 26 27 28 27 30 7 3 3 3 3 5 1 3 6 4 2 3 6 4 3 4 2 3 3 4 6 5 8 13 9 6 5 8 1 2 4 4 5 6 4 1 4 7
25 27 27 28 28 23 2 2 3 4 4 3 2 5 4 4 3 4 4 3 3 3 3 2 4 4 5 8 3 7 8 1 2 9 8 5 7 1 5 5 3 4 5 6
24 26 27 28 30 24 3 2 2 5 5 0 5 1 6 5 5 7 6 1 1 3 5 5 2 6 4 8 5 6 8 4 7 8 6 3 3 3 4 7 4 2 6 5
24 26 27 28 30 23 2 4 1 2 2 2 3 2 3 5 4 5 8 5 4 3 5 3 5 4 7 5 11 6 5 5 4 3 1 4 3 5 3 3 3 4 6 7
23 24 25 27 30 20 4 3 3 5 2 3 5 2 2 2 1 5 4 7 4 5 7 3 3 2 3 1 8 6 6 2 2 2 5 6 7 7 6 5 4 1 5 5
22 23 24 24 25 16 4 3 2 3 4 6 2 3 5 5 3 8 4 8 5 8 3 6 5 5 3 4 1 3 4 4 3 3 3 4 4 3 6 4 9 3 3 2
21 22 22 22 20 16 1 2 1 3 3 3 2 6 4 6 5 7 1 3 4 5 3 1 4 3 4 4 6 4 4 4 3 3 3 3 4 9 13 16 8 11 11 10
21 21 22 21 20 19 1 2 3 2 2 3 6 9 5 6 8 6 4 4 0 3 6 5 6 6 4 4 7 6 2 6 3 5 3 3 0 5 2 5 4 7 5 6
21 21 21 21 21 21 2 2 1 3 3 4 5 3 3 2 4 6 4 5 2 7 4 4 4 5 5 5 2 6 6 5 6 4 6 8 3 1 6 5 3 5 4 6
20 21 21 21 21 20 5 3 1 3 1 5 3 2 2 1 1 1 3 6 6 4 3 3 3 4 4 3 2 1 3 4 6 3 3 3 3 6 3 4 6 2 3 6
19 20 21 21 21 21 10 4 3 3 1 7 3 4 3 3 2 2 4 3 4 4 5 3 3 2 2 2 3 3 4 5 2 3 5 3 6 3 3 5 3 4 3 4
19 20 20 19 19 20 14 3 3 2 3 6 3 7 8 5 6 5 2 3 2 4 5 1 2 1 2 2 1 4 3 5 6 2 5 4 5 7 5 4 5 3 4 3
19 19 19 18 17 16 12 3 4 3 3 5 4 5 3 1 4 4 4 2 3 1 3 4 2 1 4 2 2 2 5 3 6 5 2 3 6 5 6 5 5 4 4 3
19 19 19 18 17 15 12 2 2 1 1 1 7 4 4 3 2 2 4 4 4 4 3 3 3 2 2 3 3 3 3 4 5 4 3 4 4 3 4 3 2 2 3 4
20 19 19 18 17 16 7 3 3 1 3 2 6 9 5 4 2 3 4 4 3 2 2 3 2 1 3 2 3 2 0 7 5 6 7 5 4 3 1 2 2 2 2 3
20 20 19 17 15 14 2 3 1 2 2 1 4 4 5 1 2 2 2 2 3 3 3 2 2 2 4 4 2 5 3 2 7 6 5 5 6 5 3 4 4 1 3 3
20 19 18 16 12 3 2 4 3 1 0 2 5 6 5 2 3 3 2 3 2 3 2 0 2 1 4 3 3 6 4 3 5 7 8 4 3 4 3 1 4 1 3 4
22 21 17 13 8 4 4 2 3 4 3 2 1 6 4 1 0 1 1 1 3 3 2 1 2 2 2 1 4 5 4 4 4 6 4 7 5 5 4 2 0 4 5 6
23 17 7 2 2 2 3 2 5 1 3 1 1 2 4 3 0 1 3 2 1 2 1 2 4 1 3 6 8 8 8 9 9 7 5 4 4 3 1 3 5 4 7 7
15 3 4 3 1 9 5 3 2 3 2 1 3 1 4 2 1 1 2 1 2 1 4 2 3 4 3 5 11 12 9 7 7 5 3 3 1 3 4 6 6 5 8 10
5 5 2 4 10 3 2 2 1 1 2 3 4 5 3 2 3 3 2 2 0 1 5 3 1 3 4 5 7 4 5 6 4 5 4 5 4 5 6 7 7 7 9 11
3 4 5 3 3 2 1 2 3 2 4 3 3 5 5 4 2 3 1 2 2 3 1 2 2 4 4 6 7 6 5 7 6 5 6 3 5 6 6 7 7 7 9 12
0 2 2 1 1 4 2 2 2 3 3 3 2 1 2 6 3 3 3 2 3 1 2 2 3 3 4 5 4 4 3 6 6 3 3 5 4 4 4 7 7 7 9 10
2 1 5 2 2 4 3 2 3 4 2 6 1 0 3 4 2 2 3 2 2 1 1 4 2 2 3 3 2 1 2 3 6 4 1 3 3 6 7 6 6 6 9 12
2 2 3 4 4 3 4 4 2 3 3 2 3 3 1 2 3 2 2 1 3 4 4 3 4 5 3 3 2 3 2 2 3 2 3 3 4 5 7 6 5 5 6 10
2 3 3 4 2 4 2 3 3 3 1 2 2 2 2 2 2 2 4 3 5 4 4 4 3 3 3 3 4 3 4 4 4 4 3 3 4 5 6 5 4 5 4 6
3 4 3 3 3 7 8 3 4 2 2 2 2 4 3 1 1 2 3 4 3 4 3 1 4 4 6 5 4 3 3 4 4 2 2 3 4 4 3 4 4 5 4 5
Wind_Direction
352 347 345 343 343 344 27 350 55 333 33 65 28 178 202 278 274 82 275 212 213 197 222 217 166 209 229 338 164 164 203 148 209 219 277 314 145 142 129 118 251 187 154 278
351 350 347 345 345 349 308 51 271 333 79 143 264 280 277 259 273 240 251 250 221 207 92 168 47 341 337 355 114 158 178 201 62 345 3 358 66 31 118 117 76 198 144 263
351 351 349 347 347 352 106 61 48 334 50 92 134 309 272 257 257 253 191 212 350 113 59 24 67 351 334 343 33 29 91 115 156 186 189 179 74 353 86 110 81 257 210 164
351 352 352 351 351 353 35 26 327 178 272 308 320 210 259 283 286 357 29 55 4 175 110 52 7 342 334 336 354 24 81 111 96 56 36 132 74 68 79 112 153 170 240 154
352 354 355 355 354 353 56 62 28 356 271 295 344 117 245 256 90 11 23 93 29 86 114 140 169 24 36 44 331 30 358 137 135 101 333 139 82 67 64 14 353 18 63 61
353 354 357 359 2 2 39 328 339 101 298 344 50 307 289 308 133 11 90 151 94 60 146 190 209 196 211 229 310 15 55 110 84 217 323 82 17 29 104 96 22 305 136 57
353 355 357 1 5 18 236 269 34 46 301 32 306 320 341 351 342 128 60 81 95 230 356 19 47 36 306 215 241 171 126 90 74 161 23 180 283 103 106 95 41 21 60 67
352 355 356 359 360 360 181 288 58 73 328 263 318 344 349 338 346 35 85 18 126 53 43 51 22 342 8 268 253 216 191 126 101 140 153 124 312 257 216 140 25 1 41 40
351 353 356 358 359 0 22 286 234 100 114 272 267 306 360 10 354 4 360 350 359 67 74 70 145 221 223 293 314 50 72 69 125 143 146 189 177 242 338 135 69 335 75 48
349 351 354 357 359 358 348 284 314 102 79 273 0 22 277 325 74 161 317 342 6 56 67 92 161 246 228 237 273 316 36 31 151 141 131 312 300 317 326 134 191 159 115 100
345 346 349 352 357 358 2 282 310 86 200 279 283 332 10 348 57 121 282 39 342 44 69 126 225 185 271 50 341 110 133 118 127 90 93 201 8 346 150 175 102 131 63 49
342 343 345 346 351 355 3 311 326 337 169 245 290 255 238 229 188 151 4 186 186 182 93 162 123 325 23 148 227 354 40 171 144 126 155 271 318 92 79 84 95 55 82 71
338 339 340 340 342 347 357 280 301 1 15 308 1 280 289 151 181 168 116 289 202 186 167 153 154 104 122 124 265 97 360 119 103 85 348 61 70 64 84 108 123 149 144 152
334 334 334 333 333 333 342 283 274 122 255 350 283 325 297 313 202 131 131 157 59 94 67 99 126 155 151 205 193 119 213 53 119 68 147 92 47 92 118 96 77 21 350 4
330 329 327 327 327 325 320 216 241 221 124 256 280 308 266 279 191 118 87 85 93 77 60 78 221 204 101 2 66 1 266 159 138 198 195 145 190 181 148 70 36 51 78 346
322 321 319 317 322 333 348 10 241 28 54 82 311 294 295 197 147 55 113 96 99 93 130 208 247 250 105 99 146 265 281 166 154 167 173 166 149 171 172 161 179 289 318 319
313 310 311 312 316 316 166 198 241 43 49 79 312 316 292 237 69 19 35 41 90 114 128 214 169 352 83 104 161 220 218 186 115 123 114 101 167 203 197 165 105 120 249 247
313 313 311 307 300 259 306 265 272 144 93 90 273 275 340 148 69 313 8 68 28 8 161 60 157 11 55 224 243 171 164 141 127 159 178 178 168 113 124 139 55 330 307 289
314 311 315 59 46 12 257 238 138 125 137 196 187 230 241 355 174 167 22 78 71 298 175 245 101 358 223 217 172 178 182 181 184 190 157 88 86 125 344 317 302 299 297 295
313 9 30 339 298 299 347 13 31 360 322 58 229 241 265 99 42 308 94 64 163 162 248 100 132 237 249 202 189 181 185 186 149 121 109 114 171 241 279 277 286 265 271 285
22 6 319 290 311 22 28 281 164 203 266 208 237 196 234 275 133 197 167 166 111 76 267 141 226 278 279 181 155 98 113 128 127 116 120 139 166 219 257 279 267 266 283 285
274 287 295 302 343 21 348 259 291 195 240 226 194 229 194 276 105 103 308 122 53 232 197 100 250 269 310 91 109 129 144 136 134 143 143 185 228 247 256 264 280 302 292 297
40 222 281 296 325 26 228 289 299 295 294 332 279 259 135 348 23 59 75 88 235 1 42 235 230 310 14 74 85 82 58 97 110 132 182 208 258 292 254 290 296 292 298 308
303 313 319 173 269 249 218 255 249 254 304 321 263 135 172 212 92 131 107 233 70 8 270 232 194 239 295 331 328 52 24 174 173 188 257 279 310 307 312 301 295 307 323 317
289 26 249 235 247 269 268 269 316 337 306 306 12 34 8 358 91 31 83 145 241 201 227 223 211 205 203 252 270 265 275 267 241 256 267 281 328 318 306 332 326 350 323 347
250 236 270 274 349 299 266 317 280 217 136 96 63 305 32 336 120 138 220 163 217 229 209 215 174 198 218 240 234 234 270 223 224 252 246 304 309 306 306 315 360 326 328 338
244 251 222 224 254 253 275 208 242 121 118 98 10 352 249 121 75 265 188 205 222 208 233 221 192 220 238 233 265 254 216 221 239 249 313 284 290 306 344 336 306 302 306 292